Theta_e
313 312 310 309 309 311 313 313 311 305 307 309 307 305 304 305 302 305 304 304 306 307 308 310 309 308 311 314 317 315 313 314 313 313 312 310 310 310
311 309 308 307 308 309 308 309 309 308 304 306 302 302 302 303 302 302 301 302 303 306 306 306 308 311 311 312 311 310 310 310 310 309 309 308 309 310
306 305 304 307 307 307 308 307 307 307 304 299 299 300 301 299 299 299 300 299 300 301 303 304 304 304 305 306 307 307 306 306 306 306 307 307 307 308
304 304 303 304 303 304 305 304 303 302 302 299 297 297 296 296 297 296 296 297 298 298 299 300 301 302 302 302 302 302 301 301 302 303 303 304 304 305
300 300 299 301 299 300 300 299 299 298 298 296 293 295 295 293 292 294 295 294 296 295 295 296 297 298 299 299 299 298 300 301 301 301 300 300 301 302
297 297 297 296 296 296 296 295 296 295 295 295 294 293 292 292 292 290 292 294 292 293 293 292 293 293 294 295 294 293 294 294 296 297 298 298 299 300
294 294 294 295 295 295 294 293 293 292 292 292 292 292 291 290 288 290 288 289 290 289 287 289 288 289 290 291 291 290 291 292 293 294 295 296 297 297
291 292 292 292 293 293 292 292 290 290 288 288 289 289 289 288 288 285 285 284 283 287 284 284 286 285 286 286 289 289 289 290 291 292 293 293 294 294
288 289 288 287 287 287 288 288 290 289 289 288 285 285 285 285 285 284 284 283 283 284 283 281 284 282 285 287 288 288 290 290 291 291 292 292 292 293
286 286 287 287 287 286 286 285 286 287 287 288 287 287 286 287 286 285 284 283 284 284 283 279 283 282 284 285 287 288 289 290 291 291 292 292 293 293
286 287 288 288 288 287 285 283 283 285 287 286 285 285 285 285 285 284 283 281 280 280 282 280 282 281 283 283 284 287 288 288 289 291 292 292 292 293
284 286 287 287 287 287 285 283 281 282 283 283 283 282 282 282 283 282 282 278 280 279 281 279 280 280 279 283 283 284 284 288 288 288 290 290 291 288
283 283 284 287 286 286 286 283 283 284 283 281 280 280 280 281 282 282 282 281 279 279 282 281 280 279 279 279 282 283 283 283 283 285 289 289 289 289
282 283 284 285 285 286 286 286 284 283 280 279 278 278 279 281 282 282 281 282 282 279 282 280 276 279 279 278 277 281 282 282 282 282 282 287 289 289
283 284 285 285 284 283 284 284 284 280 279 278 278 279 281 281 280 279 281 281 282 281 282 278 280 280 280 277 277 277 279 280 282 281 280 280 281 281
285 284 285 285 284 282 281 281 280 279 279 279 279 279 280 280 279 280 279 279 280 279 283 281 281 280 277 277 277 277 278 276 279 279 280 280 282 283
284 283 282 282 281 280 279 279 279 279 278 279 278 278 279 279 279 280 279 278 277 277 278 280 281 280 279 277 276 277 277 278 279 280 279 281 282 282
283 282 281 281 280 279 278 278 278 279 278 279 279 278 278 278 278 279 278 277 276 277 277 278 277 277 277 279 282 276 277 278 279 282 282 280 280 282
283 282 281 281 280 279 279 279 278 279 278 278 277 277 276 276 277 276 276 276 276 276 276 276 274 274 273 271 277 285 277 278 277 279 279 279 279 280
282 281 281 281 281 280 279 279 279 278 278 277 276 276 274 275 274 275 275 274 275 275 275 273 273 274 275 273 273 277 284 279 278 277 277 279 281 285
281 281 282 281 281 280 280 279 278 278 278 277 276 275 276 276 275 274 275 278 277 275 274 275 277 283 280 279 275 275 277 282 281 277 276 277 277 277
281 281 281 281 281 281 280 280 279 278 277 276 276 277 277 276 275 274 275 275 276 276 276 278 279 278 277 275 273 274 275 277 281 283 284 283 278 274
283 282 282 281 281 281 280 280 279 278 278 277 278 278 277 277 277 277 276 276 276 275 275 275 277 278 277 276 276 275 276 275 276 276 278 283 284 285
Wind_Speed
3 3 2 2 3 3 2 0 2 3 5 2 3 4 3 3 6 5 7 9 11 14 18 15 9 8 9 2 9 14 15 15 14 15 13 8 4 3
1 3 2 2 3 2 2 1 1 0 2 3 4 3 2 2 5 6 6 6 9 13 14 17 20 14 13 15 15 13 14 13 10 7 5 3 3 6
2 2 3 2 2 2 2 2 1 1 3 1 2 1 1 5 5 5 4 4 3 11 11 12 13 13 14 13 11 10 8 7 6 5 6 3 1 3
2 3 3 2 4 2 1 2 1 3 3 2 3 3 3 4 4 4 3 3 4 8 8 8 9 9 9 8 7 5 3 2 1 1 3 3 3 5
4 4 4 3 4 4 4 4 3 3 2 2 2 2 1 4 3 3 3 3 2 3 4 4 6 8 5 4 5 7 7 4 3 4 3 1 1 5
6 6 7 6 5 4 4 3 2 1 1 2 2 1 1 1 1 2 2 1 2 4 1 1 2 1 2 3 3 4 4 4 3 2 2 3 5 7
7 7 8 9 11 7 4 3 3 2 2 0 0 1 1 1 2 2 3 3 1 3 4 3 1 3 1 1 1 2 7 7 7 7 8 8 8 9
6 5 5 7 6 6 8 10 6 3 2 2 1 2 3 3 1 3 3 3 2 3 4 4 2 3 3 3 7 8 9 9 9 10 10 10 10 10
3 3 4 3 4 2 5 4 7 7 7 4 3 3 3 4 2 4 4 3 3 4 4 4 3 4 2 3 4 7 8 8 9 9 8 9 10 11
3 3 4 3 2 2 2 1 3 3 4 3 4 5 4 4 1 1 3 3 4 2 2 2 2 3 3 3 3 3 7 8 8 8 8 9 9 10
3 3 1 3 4 3 2 0 2 3 3 2 2 3 2 3 4 3 2 2 3 1 2 2 3 4 4 2 2 3 6 7 8 8 8 6 5 6
3 3 1 3 2 1 4 2 2 1 1 2 2 3 3 3 1 3 2 1 2 2 3 2 4 3 4 1 1 3 2 7 5 8 8 8 9 4
2 3 3 1 1 2 3 4 3 4 2 2 3 2 2 2 2 2 2 0 2 2 3 2 2 2 2 3 3 3 3 3 3 5 8 10 11 10
2 1 2 2 2 5 5 5 4 2 3 2 2 3 1 1 2 1 2 3 3 3 3 2 2 1 4 5 4 2 3 4 3 2 2 6 11 13
1 1 1 2 3 4 7 7 4 4 3 3 3 1 1 2 2 1 4 4 5 5 5 4 4 4 4 5 6 5 7 3 7 5 3 2 3 2
4 3 4 5 5 4 2 4 3 4 3 3 2 2 1 2 2 2 2 2 3 4 5 7 6 6 6 6 7 9 6 5 2 2 3 3 4 5
4 2 3 4 4 4 4 4 3 3 3 3 2 2 3 2 2 2 2 2 3 4 3 4 6 6 7 7 8 9 9 8 7 5 3 8 8 5
4 4 5 4 4 4 4 3 3 4 2 2 2 2 2 1 2 2 2 3 5 4 3 2 2 2 3 8 19 11 7 7 5 5 8 7 10 7
6 5 4 3 3 3 2 2 2 2 2 2 2 2 2 2 5 3 4 4 5 4 4 2 2 3 7 9 4 14 8 5 4 6 6 7 9 9
6 6 5 4 4 3 3 3 3 3 3 3 3 3 3 3 3 4 4 5 5 4 5 2 3 4 9 9 5 6 7 6 7 9 9 8 10 20
6 7 5 5 4 3 3 3 4 3 3 3 3 3 3 4 5 5 6 11 11 6 8 7 6 14 5 5 7 9 7 18 18 11 7 8 10 11
6 6 6 5 4 5 5 5 5 5 4 4 5 5 5 5 6 6 6 7 7 7 8 7 6 6 6 7 10 12 10 9 13 20 23 22 10 7
7 7 5 5 5 5 5 5 6 5 5 5 5 5 5 6 7 6 7 8 7 7 7 7 6 6 8 8 13 10 15 14 9 10 11 21 25 28
Wind_Direction
36 21 57 36 59 34 348 192 188 178 210 162 130 78 46 41 21 17 27 26 30 26 23 7 328 307 308 310 114 110 92 97 104 112 125 127 143 218
42 120 90 88 77 64 83 98 59 319 224 14 72 66 57 78 60 31 21 28 21 33 29 33 40 53 69 83 91 93 101 99 104 97 109 147 213 251
81 86 81 74 84 73 39 39 67 257 242 98 91 64 68 27 32 12 17 14 3 20 15 26 36 41 46 54 65 77 85 110 130 162 203 223 325 338
79 81 66 58 77 65 116 98 73 31 335 241 51 37 26 8 20 3 1 9 1 10 1 10 21 29 40 48 47 45 38 34 326 212 232 234 233 274
44 58 52 71 72 61 38 51 40 32 33 38 109 60 51 37 359 359 345 11 344 344 359 1 360 18 18 20 53 53 50 56 61 92 101 102 285 279
66 50 53 58 69 63 77 63 60 56 58 91 76 107 37 62 313 349 322 186 53 0 288 128 341 248 18 9 39 32 14 3 350 315 293 279 284 286
90 78 64 69 69 53 60 53 52 43 13 337 23 230 299 267 341 315 308 346 118 36 335 326 1 340 150 235 165 54 345 323 312 298 287 282 278 276
108 88 83 56 59 65 74 63 43 39 88 5 245 273 68 339 360 26 349 3 343 78 358 316 3 328 339 4 14 339 321 313 304 288 281 281 277 275
99 83 83 81 74 93 96 88 78 61 53 315 339 58 31 54 44 330 12 333 315 351 3 306 21 319 345 336 48 331 319 312 300 291 287 276 271 269
107 123 140 162 104 101 94 117 69 76 40 18 17 50 43 21 360 190 312 303 279 180 43 272 352 318 332 306 87 334 334 332 328 279 276 276 276 269
187 203 194 164 118 38 62 42 218 136 134 75 48 51 14 337 315 319 305 345 292 147 99 326 316 319 303 288 146 239 289 315 321 322 276 288 303 302
167 140 158 359 99 167 319 322 294 55 78 301 210 186 199 156 285 271 335 270 306 294 87 337 355 4 322 308 290 276 317 310 290 289 288 291 284 288
179 197 147 193 246 285 267 313 7 346 171 256 273 233 193 167 167 85 17 346 286 264 52 29 311 306 266 300 308 309 322 305 296 307 299 275 267 258
216 193 143 182 274 278 261 262 281 262 267 275 263 265 229 73 148 155 7 323 310 263 347 46 271 301 299 296 267 329 328 329 309 266 276 296 289 275
251 215 171 208 253 259 254 255 219 244 256 257 250 233 172 88 36 221 207 228 240 244 243 195 239 264 241 251 283 303 306 311 314 274 260 248 248 248
230 233 227 230 242 268 243 227 228 251 240 251 259 252 173 160 224 225 232 251 258 271 223 190 215 235 259 257 263 272 259 259 296 294 273 272 273 261
198 181 205 226 232 215 217 233 230 222 222 242 241 238 243 235 231 225 237 263 259 265 255 199 211 214 233 250 271 261 266 264 260 261 238 273 271 255
201 219 227 227 231 233 229 225 215 234 215 219 227 230 260 274 261 256 223 242 256 260 259 245 209 236 267 260 233 256 259 264 266 262 277 274 279 263
223 229 229 225 218 211 217 209 228 218 188 210 224 232 231 232 266 254 259 261 267 269 259 234 218 218 258 263 267 227 234 253 283 279 265 258 267 271
221 232 233 218 225 219 210 213 218 206 203 213 213 204 204 225 241 247 248 249 256 267 273 255 231 227 247 258 260 281 262 267 260 269 274 271 270 277
220 226 224 227 224 209 214 215 211 214 215 203 202 212 221 223 237 241 245 258 257 249 262 261 246 255 257 277 261 266 263 248 247 251 262 271 279 281
220 218 219 220 213 217 215 216 214 221 223 220 224 228 227 223 237 242 243 253 256 257 264 273 278 273 259 250 266 277 278 275 271 273 269 255 253 266
217 224 214 214 211 215 214 216 219 218 219 225 227 228 225 238 244 247 255 260 259 262 267 272 270 257 254 258 266 271 270 274 275 275 268 263 260 256